User: anonymous   Login
Location: Ellerstadt
(49.4644°N, 8.2615°E)
Time: 17:32:31
(UTC+00:00)
Language:

Explorer 11/Cluster Stage 4 - Orbit

View from above orbital plane
View from above orbital plane
View from above satellite
View from above satellite

Ground track
Ground track

The orbit data is extracted from the following two-line orbital elements,

1   107U 61013A   21168.98798256  .00000783  00000-0  83298-4 0  9993
2   107  28.7899 276.6469 0545475 203.2036 154.3002 14.09224360 17384
Epoch (UTC): 17 June 2021 23:42:41
Eccentricity: 0.0545475
inclination: 28.7899°
perigee height: 467 km
apogee height: 1257 km
right ascension of ascending node: 276.6469°
argument of perigee: 203.2036°
revolutions per day: 14.09224360
mean anomaly at epoch: 154.3002°
orbit number at epoch: 1738

The dashed part of the orbit path shows where the satellite is in the earth's shadow,  

DLR